Time,TemperatureF,DewpointF,PressureIn,WindDirection,WindDirectionDegrees,WindSpeedMPH,WindSpeedGustMPH,Humidity,HourlyPrecipIn,Conditions,Clouds,dailyrainin,SoftwareType,DateUTC
2013-09-16 00:00:00,54.1,53.0,30.14,SW,227,0.0,-999.0,97,-99.99,,,0.10,weatherlink.com 1.10,2013-09-16 04:00:00,
2013-09-16 00:15:00,54.5,54.0,30.15,SW,227,0.0,-999.0,97,-99.99,,,0.00,weatherlink.com 1.10,2013-09-16 04:15:00,
2013-09-16 00:30:00,54.6,54.0,30.15,NNW,348,6.0,-999.0,97,-99.99,,,0.00,weatherlink.com 1.10,2013-09-16 04:30:00,
2013-09-16 00:45:00,54.5,54.0,30.15,NNW,338,6.0,-999.0,97,-99.99,,,0.00,weatherlink.com 1.10,2013-09-16 04:45:00,
2013-09-16 01:00:00,54.1,53.0,30.15,NNW,335,3.0,-999.0,97,-99.99,,,0.00,weatherlink.com 1.10,2013-09-16 05:00:00,
2013-09-16 01:15:00,53.9,53.0,30.16,NNW,339,2.0,-999.0,97,-99.99,,,0.00,weatherlink.com 1.10,2013-09-16 05:15:00,
2013-09-16 01:30:00,53.5,53.0,30.16,North,355,5.0,-999.0,97,-99.99,,,0.00,weatherlink.com 1.10,2013-09-16 05:30:00,
2013-09-16 01:45:00,53.4,53.0,30.17,NNE,13,7.0,-999.0,97,-99.99,,,0.00,weatherlink.com 1.10,2013-09-16 05:45:00,
2013-09-16 02:00:00,53.2,52.0,30.17,North,355,4.0,-999.0,97,-99.99,,,0.01,weatherlink.com 1.10,2013-09-16 06:00:00,
2013-09-16 02:15:00,53.1,52.0,30.18,North,11,1.0,-999.0,97,-99.99,,,0.01,weatherlink.com 1.10,2013-09-16 06:15:00,
2013-09-16 02:30:00,52.9,52.0,30.18,NNW,331,4.0,-999.0,96,-99.99,,,0.01,weatherlink.com 1.10,2013-09-16 06:30:00,
2013-09-16 02:45:00,52.7,52.0,30.18,NNW,346,4.0,-999.0,96,-99.99,,,0.01,weatherlink.com 1.10,2013-09-16 06:45:00,
2013-09-16 03:00:00,52.6,52.0,30.19,North,349,3.0,-999.0,97,-99.99,,,0.01,weatherlink.com 1.10,2013-09-16 07:00:00,
2013-09-16 03:15:00,52.4,51.0,30.18,North,360,3.0,-999.0,96,-99.99,,,0.01,weatherlink.com 1.10,2013-09-16 07:15:00,
2013-09-16 03:30:00,52.1,51.0,30.19,North,355,4.0,-999.0,96,-99.99,,,0.01,weatherlink.com 1.10,2013-09-16 07:30:00,
2013-09-16 03:45:00,51.4,50.0,30.20,North,11,8.0,-999.0,95,-99.99,,,0.01,weatherlink.com 1.10,2013-09-16 07:45:00,
2013-09-16 04:00:00,51.2,50.0,30.20,North,9,4.0,-999.0,95,-99.99,,,0.01,weatherlink.com 1.10,2013-09-16 08:00:00,
2013-09-16 04:15:00,51.1,50.0,30.20,North,360,4.0,-999.0,95,-99.99,,,0.01,weatherlink.com 1.10,2013-09-16 08:15:00,
2013-09-16 04:30:00,51.1,50.0,30.21,North,5,2.0,-999.0,95,-99.99,,,0.01,weatherlink.com 1.10,2013-09-16 08:30:00,
2013-09-16 04:45:00,51.0,50.0,30.21,NNW,345,4.0,-999.0,95,-99.99,,,0.01,weatherlink.com 1.10,2013-09-16 08:45:00,
2013-09-16 05:00:00,50.9,50.0,30.22,NNW,346,7.0,-999.0,95,-99.99,,,0.01,weatherlink.com 1.10,2013-09-16 09:00:00,
2013-09-16 05:15:00,50.7,49.0,30.22,NNW,342,0.0,-999.0,95,-99.99,,,0.01,weatherlink.com 1.10,2013-09-16 09:15:00,
2013-09-16 05:30:00,50.5,49.0,30.23,NNW,343,2.0,-999.0,95,-99.99,,,0.01,weatherlink.com 1.10,2013-09-16 09:30:00,
2013-09-16 05:45:00,50.4,49.0,30.23,NNW,344,3.0,-999.0,95,-99.99,,,0.01,weatherlink.com 1.10,2013-09-16 09:45:00,
2013-09-16 06:00:00,50.3,49.0,30.24,NNW,344,3.0,-999.0,95,-99.99,,,0.01,weatherlink.com 1.10,2013-09-16 10:00:00,
2013-09-16 06:15:00,50.2,49.0,30.24,NE,41,3.0,-999.0,95,-99.99,,,0.01,weatherlink.com 1.10,2013-09-16 10:15:00,
2013-09-16 06:30:00,49.9,48.0,30.25,NE,44,4.0,-999.0,94,-99.99,,,0.01,weatherlink.com 1.10,2013-09-16 10:30:00,
2013-09-16 06:45:00,49.6,48.0,30.26,NE,42,3.0,-999.0,94,-99.99,,,0.01,weatherlink.com 1.10,2013-09-16 10:45:00,
2013-09-16 07:00:00,49.6,48.0,30.26,NNE,30,4.0,-999.0,93,-99.99,,,0.01,weatherlink.com 1.10,2013-09-16 11:00:00,
2013-09-16 07:15:00,49.6,48.0,30.27,NNE,27,5.0,-999.0,94,-99.99,,,0.01,weatherlink.com 1.10,2013-09-16 11:15:00,
2013-09-16 07:30:00,49.6,48.0,30.27,NNE,27,2.0,-999.0,94,-99.99,,,0.01,weatherlink.com 1.10,2013-09-16 11:30:00,
2013-09-16 07:45:00,49.4,48.0,30.28,NE,36,5.0,-999.0,93,-99.99,,,0.01,weatherlink.com 1.10,2013-09-16 11:45:00,
2013-09-16 08:00:00,49.2,47.0,30.28,NE,36,3.0,-999.0,93,-99.99,,,0.01,weatherlink.com 1.10,2013-09-16 12:00:00,
2013-09-16 08:15:00,48.9,46.0,30.29,ENE,57,4.0,-999.0,91,-99.99,,,0.01,weatherlink.com 1.10,2013-09-16 12:15:00,
2013-09-16 08:30:00,48.8,46.0,30.30,NE,36,4.0,-999.0,89,-99.99,,,0.01,weatherlink.com 1.10,2013-09-16 12:30:00,
2013-09-16 08:45:00,49.0,46.0,30.30,NNE,32,4.0,-999.0,90,-99.99,,,0.01,weatherlink.com 1.10,2013-09-16 12:45:00,
2013-09-16 09:00:00,49.0,46.0,30.30,NE,40,5.0,-999.0,88,-99.99,,,0.01,weatherlink.com 1.10,2013-09-16 13:00:00,
2013-09-16 09:15:00,49.2,46.0,30.31,ENE,57,5.0,-999.0,88,-99.99,,,0.01,weatherlink.com 1.10,2013-09-16 13:15:00,
2013-09-16 09:30:00,49.4,46.0,30.31,NE,51,1.0,-999.0,88,-99.99,,,0.01,weatherlink.com 1.10,2013-09-16 13:30:00,
2013-09-16 09:45:00,49.7,46.0,30.32,ENE,65,4.0,-999.0,88,-99.99,,,0.01,weatherlink.com 1.10,2013-09-16 13:45:00,
2013-09-16 10:00:00,49.9,46.0,30.33,ENE,76,6.0,-999.0,87,-99.99,,,0.01,weatherlink.com 1.10,2013-09-16 14:00:00,
2013-09-16 10:15:00,50.2,46.0,30.33,ENE,74,3.0,-999.0,85,-99.99,,,0.01,weatherlink.com 1.10,2013-09-16 14:15:00,
2013-09-16 10:30:00,50.5,46.0,30.34,NE,49,5.0,-999.0,85,-99.99,,,0.01,weatherlink.com 1.10,2013-09-16 14:30:00,
2013-09-16 10:45:00,51.1,46.0,30.35,NNE,20,2.0,-999.0,84,-99.99,,,0.01,weatherlink.com 1.10,2013-09-16 14:45:00,
2013-09-16 11:00:00,51.9,47.0,30.35,North,5,6.0,-999.0,84,-99.99,,,0.01,weatherlink.com 1.10,2013-09-16 15:00:00,
2013-09-16 11:15:00,52.0,47.0,30.35,NE,55,3.0,-999.0,83,-99.99,,,0.01,weatherlink.com 1.10,2013-09-16 15:15:00,
2013-09-16 11:30:00,52.0,47.0,30.36,NE,44,3.0,-999.0,83,-99.99,,,0.01,weatherlink.com 1.10,2013-09-16 15:30:00,
2013-09-16 11:45:00,52.3,47.0,30.36,ENE,58,5.0,-999.0,83,-99.99,,,0.01,weatherlink.com 1.10,2013-09-16 15:45:00,
2013-09-16 12:00:00,52.4,47.0,30.36,NE,51,5.0,-999.0,81,-99.99,,,0.01,weatherlink.com 1.10,2013-09-16 16:00:00,
2013-09-16 12:15:00,52.9,47.0,30.36,NE,39,3.0,-999.0,80,-99.99,,,0.01,weatherlink.com 1.10,2013-09-16 16:15:00,
2013-09-16 12:30:00,53.0,47.0,30.36,NE,54,5.0,-999.0,80,-99.99,,,0.01,weatherlink.com 1.10,2013-09-16 16:30:00,
2013-09-16 12:45:00,53.3,47.0,30.36,ENE,62,4.0,-999.0,79,-99.99,,,0.01,weatherlink.com 1.10,2013-09-16 16:45:00,
2013-09-16 13:00:00,53.9,48.0,30.36,ENE,59,4.0,-999.0,79,-99.99,,,0.01,weatherlink.com 1.10,2013-09-16 17:00:00,
2013-09-16 13:15:00,54.3,48.0,30.36,NE,51,2.0,-999.0,79,-99.99,,,0.01,weatherlink.com 1.10,2013-09-16 17:15:00,
2013-09-16 13:30:00,54.6,47.0,30.36,NE,41,0.0,-999.0,76,-99.99,,,0.01,weatherlink.com 1.10,2013-09-16 17:30:00,
2013-09-16 13:45:00,55.0,48.0,30.36,NE,38,4.0,-999.0,78,-99.99,,,0.01,weatherlink.com 1.10,2013-09-16 17:45:00,
2013-09-16 14:00:00,55.3,47.0,30.36,NNE,23,6.0,-999.0,74,-99.99,,,0.01,weatherlink.com 1.10,2013-09-16 18:00:00,
2013-09-16 14:15:00,55.7,47.0,30.36,ENE,61,0.0,-999.0,73,-99.99,,,0.01,weatherlink.com 1.10,2013-09-16 18:15:00,
2013-09-16 14:30:00,57.4,47.0,30.36,NE,50,8.0,-999.0,69,-99.99,,,0.01,weatherlink.com 1.10,2013-09-16 18:30:00,
2013-09-16 14:45:00,56.5,48.0,30.36,North,5,4.0,-999.0,72,-99.99,,,0.01,weatherlink.com 1.10,2013-09-16 18:45:00,
2013-09-16 15:00:00,56.7,48.0,30.35,NNE,25,5.0,-999.0,72,-99.99,,,0.01,weatherlink.com 1.10,2013-09-16 19:00:00,
2013-09-16 15:15:00,57.6,48.0,30.34,East,92,8.0,-999.0,71,-99.99,,,0.01,weatherlink.com 1.10,2013-09-16 19:15:00,
2013-09-16 15:30:00,58.4,47.0,30.34,ENE,60,6.0,-999.0,66,-99.99,,,0.01,weatherlink.com 1.10,2013-09-16 19:30:00,
2013-09-16 15:45:00,58.5,48.0,30.34,NNE,29,3.0,-999.0,69,-99.99,,,0.01,weatherlink.com 1.10,2013-09-16 19:45:00,
2013-09-16 16:00:00,58.6,47.0,30.34,ENE,74,2.0,-999.0,66,-99.99,,,0.01,weatherlink.com 1.10,2013-09-16 20:00:00,
2013-09-16 16:15:00,58.4,47.0,30.34,NE,53,3.0,-999.0,65,-99.99,,,0.01,weatherlink.com 1.10,2013-09-16 20:15:00,
2013-09-16 16:30:00,58.7,46.0,30.34,ENE,63,4.0,-999.0,63,-99.99,,,0.01,weatherlink.com 1.10,2013-09-16 20:30:00,
2013-09-16 16:45:00,59.0,47.0,30.34,NE,52,0.0,-999.0,64,-99.99,,,0.01,weatherlink.com 1.10,2013-09-16 20:45:00,
2013-09-16 17:00:00,59.0,46.0,30.34,ENE,75,0.0,-999.0,63,-99.99,,,0.01,weatherlink.com 1.10,2013-09-16 21:00:00,
2013-09-16 17:15:00,59.1,47.0,30.33,ESE,108,2.0,-999.0,64,-99.99,,,0.01,weatherlink.com 1.10,2013-09-16 21:15:00,
2013-09-16 17:30:00,59.1,46.0,30.33,East,85,4.0,-999.0,63,-99.99,,,0.01,weatherlink.com 1.10,2013-09-16 21:30:00,
2013-09-16 17:45:00,59.1,46.0,30.33,East,88,5.0,-999.0,63,-99.99,,,0.01,weatherlink.com 1.10,2013-09-16 21:45:00,
2013-09-16 18:00:00,59.2,46.0,30.33,ENE,59,0.0,-999.0,63,-99.99,,,0.01,weatherlink.com 1.10,2013-09-16 22:00:00,
2013-09-16 18:15:00,58.9,47.0,30.33,East,92,0.0,-999.0,64,-99.99,,,0.01,weatherlink.com 1.10,2013-09-16 22:15:00,
2013-09-16 18:30:00,58.5,46.0,30.33,East,101,0.0,-999.0,63,-99.99,,,0.01,weatherlink.com 1.10,2013-09-16 22:30:00,
2013-09-16 18:45:00,58.3,46.0,30.33,ESE,104,2.0,-999.0,63,-99.99,,,0.01,weatherlink.com 1.10,2013-09-16 22:45:00,
2013-09-16 19:00:00,58.0,46.0,30.33,East,86,0.0,-999.0,65,-99.99,,,0.01,weatherlink.com 1.10,2013-09-16 23:00:00,
2013-09-16 19:15:00,57.2,46.0,30.33,East,94,0.0,-999.0,67,-99.99,,,0.01,weatherlink.com 1.10,2013-09-16 23:15:00,
2013-09-16 19:30:00,56.2,47.0,30.33,East,94,0.0,-999.0,70,-99.99,,,0.01,weatherlink.com 1.10,2013-09-16 23:30:00,
2013-09-16 19:45:00,54.9,46.0,30.33,East,94,0.0,-999.0,73,-99.99,,,0.01,weatherlink.com 1.10,2013-09-16 23:45:00,
2013-09-16 20:00:00,53.3,47.0,30.33,East,94,0.0,-999.0,80,-99.99,,,0.01,weatherlink.com 1.10,2013-09-17 00:00:00,
2013-09-16 20:15:00,50.7,46.0,30.33,East,94,0.0,-999.0,84,-99.99,,,0.01,weatherlink.com 1.10,2013-09-17 00:15:00,
2013-09-16 20:30:00,49.0,45.0,30.33,East,94,0.0,-999.0,86,-99.99,,,0.01,weatherlink.com 1.10,2013-09-17 00:30:00,
2013-09-16 20:45:00,47.2,44.0,30.34,East,94,0.0,-999.0,89,-99.99,,,0.01,weatherlink.com 1.10,2013-09-17 00:45:00,
2013-09-16 21:00:00,46.1,43.0,30.34,East,94,0.0,-999.0,90,-99.99,,,0.01,weatherlink.com 1.10,2013-09-17 01:00:00,
2013-09-16 21:15:00,45.3,43.0,30.34,East,94,0.0,-999.0,91,-99.99,,,0.01,weatherlink.com 1.10,2013-09-17 01:15:00,
2013-09-16 21:30:00,44.5,42.0,30.34,East,94,0.0,-999.0,91,-99.99,,,0.01,weatherlink.com 1.10,2013-09-17 01:30:00,
2013-09-16 21:45:00,43.8,42.0,30.34,East,94,0.0,-999.0,92,-99.99,,,0.01,weatherlink.com 1.10,2013-09-17 01:45:00,
2013-09-16 22:00:00,43.1,41.0,30.34,East,94,0.0,-999.0,92,-99.99,,,0.01,weatherlink.com 1.10,2013-09-17 02:00:00,
2013-09-16 22:15:00,42.7,41.0,30.34,East,94,0.0,-999.0,93,-99.99,,,0.01,weatherlink.com 1.10,2013-09-17 02:15:00,
2013-09-16 22:30:00,42.3,41.0,30.35,East,94,0.0,-999.0,93,-99.99,,,0.01,weatherlink.com 1.10,2013-09-17 02:30:00,
2013-09-16 22:45:00,43.1,42.0,30.35,East,94,2.0,-999.0,95,-99.99,,,0.01,weatherlink.com 1.10,2013-09-17 02:45:00,
2013-09-16 23:00:00,44.8,44.0,30.35,East,94,0.0,-999.0,95,-99.99,,,0.01,weatherlink.com 1.10,2013-09-17 03:00:00,
2013-09-16 23:15:00,44.7,43.0,30.35,East,94,0.0,-999.0,94,-99.99,,,0.01,weatherlink.com 1.10,2013-09-17 03:15:00,
2013-09-16 23:30:00,44.6,43.0,30.36,East,94,0.0,-999.0,94,-99.99,,,0.01,weatherlink.com 1.10,2013-09-17 03:30:00,
2013-09-16 23:45:00,44.4,43.0,30.36,East,94,0.0,-999.0,93,-99.99,,,0.01,weatherlink.com 1.10,2013-09-17 03:45:00,